Weather History for KARG - October, 2012

Change the Weather History Date:

Sunday, October 14, 2012

  Actual Average Record
Temperature  
Mean Temperature 68 °F -  
Max Temperature 77 °F 69 °F 82 °F (2000)
Min Temperature 60 °F 48 °F 37 °F (2002)
Cooling Degree Days 4    
Growing Degree Days 18 (Base 50)    
Moisture  
Dew Point 59 °F    
Average Humidity 75    
Maximum Humidity 100    
Minimum Humidity 47    
Precipitation  
Precipitation 0.24 in - - ()
Sea Level Pressure  
Sea Level Pressure 29.89 in    
Wind  
Wind Speed 17 mph (SW)    
Max Wind Speed 29 mph    
Max Gust Speed 36 mph    
Visibility 10 miles    
Events      
Averages and records for this station are not official NWS values.
T = Trace of Precipitation, MM = Missing Value Source: NWS Daily Summary

Daily Weather History Graph

Daily Weather History Graph

Search for Another Location

Airport or City:

Trip Planner

Search our weather history database for the weather conditions in past years. The results will help you decide how hot, cold, wet, or windy it might be!

Date:

Astronomy

Oct. 14, 2012 Rise Set
Actual Time 7:10 AM CDT 6:28 PM CDT
Civil Twilight 6:44 AM CDT 6:54 PM CDT
Nautical Twilight 6:14 AM CDT 7:24 PM CDT
Astronomical Twilight 5:44 AM CDT 7:53 PM CDT
Moon 6:10 AM CDT (10/14) 5:48 PM CDT (10/14)
Length of Visible Light 12h 09m
Length of Day
11h 18m
Waning Crescent, 1% of the Moon is Illuminated
Oct 14
Waning Crescent
Oct 15
New
Oct 21
First Quarter
Oct 29
Full
Nov 6
Last Quarter

Hourly Weather History & Observations

Time (CDT) Temp. Dew Point Humidity Pressure Visibility Wind Dir Wind Speed Gust Speed Precip Events Conditions
12:15 AM 71.6 °F 64.4 °F 78% 29.88 in 10.0 mi South 16.1 mph - N/A   Scattered Clouds
12:35 AM 71.6 °F 64.4 °F 78% 29.87 in 10.0 mi South 13.8 mph - N/A   Scattered Clouds
12:55 AM 71.6 °F 64.4 °F 78% 29.86 in 10.0 mi SSE 15.0 mph - N/A   Mostly Cloudy
1:15 AM 69.8 °F 64.4 °F 83% 29.85 in 10.0 mi SSE 16.1 mph 21.9 mph N/A   Overcast
2:35 AM 69.8 °F 66.2 °F 88% 29.91 in 8.0 mi SSW 15.0 mph - N/A   Overcast
2:55 AM 66.2 °F 62.6 °F 88% 29.92 in 3.0 mi SSW 21.9 mph 29.9 mph N/A   Mostly Cloudy
3:16 AM 64.4 °F 62.6 °F 94% 29.89 in 10.0 mi South 15.0 mph - N/A   Mostly Cloudy
3:35 AM 64.4 °F 62.6 °F 94% 29.87 in 10.0 mi South 8.1 mph - N/A   Mostly Cloudy
3:55 AM 64.4 °F 62.6 °F 94% 29.87 in 10.0 mi South 12.7 mph - 0.09 in   Mostly Cloudy
4:16 AM 66.2 °F 64.4 °F 94% 29.85 in 10.0 mi South 20.7 mph 24.2 mph 0.04 in   Overcast
4:35 AM 66.2 °F 64.4 °F 94% 29.83 in 10.0 mi South 20.7 mph 26.5 mph 0.08 in   Overcast
4:55 AM 64.4 °F 62.6 °F 94% 29.82 in 10.0 mi SSE 20.7 mph - 0.11 in   Overcast
5:35 AM 64.4 °F 62.6 °F 94% 29.81 in 10.0 mi South 23.0 mph 29.9 mph 0.04 in   Mostly Cloudy
5:55 AM 64.4 °F 62.6 °F 94% 29.81 in 10.0 mi South 24.2 mph 32.2 mph 0.04 in   Scattered Clouds
6:15 AM 62.6 °F 62.6 °F 100% 29.79 in 10.0 mi SSE 23.0 mph 31.1 mph N/A   Partly Cloudy
6:35 AM 62.6 °F 60.8 °F 94% 29.84 in 10.0 mi South 19.6 mph 26.5 mph N/A   Clear
6:55 AM 62.6 °F 60.8 °F 94% 29.86 in 10.0 mi South 18.4 mph 23.0 mph N/A   Clear
7:35 AM 62.6 °F 60.8 °F 94% 29.86 in 10.0 mi South 17.3 mph - N/A   Overcast
7:55 AM 62.6 °F 60.8 °F 94% 29.85 in 10.0 mi South 19.6 mph 24.2 mph N/A   Overcast
8:15 AM 64.4 °F 60.8 °F 88% 29.86 in 10.0 mi South 20.7 mph - N/A   Overcast
8:36 AM 64.4 °F 62.6 °F 94% 29.86 in 10.0 mi South 24.2 mph 29.9 mph N/A   Overcast
8:55 AM 64.4 °F 62.6 °F 94% 29.86 in 10.0 mi South 23.0 mph 31.1 mph N/A   Overcast
9:15 AM 64.4 °F 62.6 °F 94% 29.86 in 10.0 mi SSW 25.3 mph 33.4 mph N/A   Overcast
9:55 AM 66.2 °F 62.6 °F 88% 29.88 in 10.0 mi SSW 24.2 mph 34.5 mph N/A   Overcast
10:15 AM 66.2 °F 62.6 °F 88% 29.89 in 10.0 mi SSW 24.2 mph 32.2 mph N/A   Overcast
10:35 AM 66.2 °F 62.6 °F 88% 29.89 in 10.0 mi SSW 24.2 mph 35.7 mph N/A   Overcast
10:55 AM 69.8 °F 62.6 °F 78% 29.89 in 10.0 mi SW 25.3 mph 29.9 mph N/A   Overcast
11:35 AM 71.6 °F 60.8 °F 69% 29.88 in 10.0 mi SSW 28.8 mph 33.4 mph N/A   Mostly Cloudy
11:55 AM 71.6 °F 60.8 °F 69% 29.88 in 10.0 mi SW 27.6 mph 32.2 mph N/A   Scattered Clouds
12:15 PM 73.4 °F 60.8 °F 65% 29.88 in 10.0 mi SW 25.3 mph 33.4 mph N/A   Scattered Clouds
12:35 PM 73.4 °F 60.8 °F 65% 29.87 in 10.0 mi SSW 25.3 mph 29.9 mph N/A   Mostly Cloudy
12:55 PM 73.4 °F 60.8 °F 65% 29.87 in 10.0 mi SW 23.0 mph 29.9 mph N/A   Scattered Clouds
12:56 PM 73.4 °F 60.8 °F 65% 29.87 in 10.0 mi SW 21.9 mph 29.9 mph N/A   Scattered Clouds
1:15 PM 73.4 °F 60.8 °F 65% 29.85 in 10.0 mi SSW 24.2 mph 31.1 mph N/A   Partly Cloudy
1:35 PM 75.2 °F 59.0 °F 57% 29.86 in 10.0 mi SW 20.7 mph 26.5 mph N/A   Scattered Clouds
2:15 PM 75.2 °F 57.2 °F 53% 29.85 in 10.0 mi SW 21.9 mph 28.8 mph N/A   Mostly Cloudy
2:35 PM 77.0 °F 57.2 °F 50% 29.85 in 10.0 mi SW 20.7 mph 26.5 mph N/A   Partly Cloudy
2:55 PM 77.0 °F 57.2 °F 50% 29.85 in 10.0 mi WSW 20.7 mph 24.2 mph N/A   Partly Cloudy
3:16 PM 77.0 °F 57.2 °F 50% 29.85 in 10.0 mi WSW 17.3 mph 26.5 mph N/A   Mostly Cloudy
3:35 PM - - N/A% 29.86 in 10.0 mi West 25.3 mph 28.8 mph N/A   Mostly Cloudy
4:35 PM 75.2 °F 53.6 °F 47% 29.89 in 10.0 mi West 18.4 mph 23.0 mph N/A   Mostly Cloudy
4:55 PM 75.2 °F 53.6 °F 47% 29.90 in 10.0 mi West 18.4 mph 23.0 mph N/A   Scattered Clouds
5:15 PM 73.4 °F 53.6 °F 50% 29.90 in 10.0 mi West 15.0 mph - N/A   Clear
5:36 PM 73.4 °F 53.6 °F 50% 29.90 in 10.0 mi West 10.4 mph - N/A   Clear
5:55 PM 71.6 °F 53.6 °F 53% 29.91 in 10.0 mi West 9.2 mph - N/A   Clear
6:15 PM 71.6 °F 53.6 °F 53% 29.91 in 10.0 mi WNW 12.7 mph 16.1 mph N/A   Clear
6:55 PM 68.0 °F 53.6 °F 60% 29.93 in 10.0 mi WSW 8.1 mph - N/A   Clear
7:15 PM 68.0 °F 53.6 °F 60% 29.94 in 10.0 mi WSW 8.1 mph - N/A   Clear
7:35 PM 66.2 °F 53.6 °F 64% 29.95 in 10.0 mi WSW 6.9 mph - N/A   Clear
7:56 PM 66.2 °F 53.6 °F 64% 29.95 in 10.0 mi WSW 6.9 mph - N/A   Clear
8:15 PM 66.2 °F 53.6 °F 64% 29.95 in 10.0 mi WSW 6.9 mph - N/A   Clear
8:35 PM 66.2 °F 53.6 °F 64% 29.97 in 10.0 mi West 6.9 mph - N/A   Clear
8:55 PM 64.4 °F 53.6 °F 68% 29.97 in 10.0 mi WSW 5.8 mph - N/A   Clear
9:15 PM 64.4 °F 53.6 °F 68% 29.97 in 10.0 mi West 4.6 mph - N/A   Clear
9:35 PM - - N/A% 29.98 in 10.0 mi WSW 5.8 mph - N/A   Clear
9:55 PM 62.6 °F 53.6 °F 72% 29.99 in 10.0 mi SW 5.8 mph - N/A   Clear
10:16 PM 62.6 °F 53.6 °F 72% 29.99 in 10.0 mi WSW 5.8 mph - N/A   Clear
10:35 PM 62.6 °F 53.6 °F 72% 29.99 in 10.0 mi WSW 5.8 mph - N/A   Clear
10:55 PM 60.8 °F 53.6 °F 77% 30.00 in 10.0 mi West 5.8 mph - N/A   Clear
11:15 PM 62.6 °F 51.8 °F 68% 30.00 in 10.0 mi West 6.9 mph - N/A   Clear
11:55 PM 60.8 °F 51.8 °F 72% 30.00 in 10.0 mi West 6.9 mph - N/A   Clear